Terminal Aerodrome Forecast
Issued by NWS

Home | Current Version | Previous Version | Text Only | Print | Product List | Glossary On
Versions: 1 2 3 4 5 6 7 8 9 10 11 12 13 14 15 16 17 18 19 20
000
FTUS42 KILM 261720
TAFCRE
TAF
KCRE 261720Z 2618/2718 19013KT P6SM SCT040 SCT070 SCT200
     FM270600 21004KT P6SM SCT015 SCT080 BKN150
      TEMPO 2709/2713 4SM BR BKN010
     FM271300 18008KT P6SM BKN020
     FM271600 17013KT P6SM BKN035=

USA.gov is the U.S. government's official web portal to all federal, state and local government web resources and services.